Location: Asheville, NC
(35.6000°N, 82.5500°W)
Time: 05:46:38
(UTC-04:00)

CUTE 1.7 + AOD 2 - Pass Details

Date: 07 January 2018
Orbit: 595 x 612 km, 97.6° (Epoch: 20 April)

Event Time Altitude Azimuth Distance (km) Brightness Sun altitude
Rises 06:54:47 0° 21° (NNE) 2,857 ? -9.3°
Reaches altitude 10° 06:57:07 10° 31° (NNE) 1,947 ? -8.8°
Maximum altitude 07:01:00 35° 97° (E) 968 ? -8.1°
Drops below altitude 10° 07:04:51 10° 164° (SSE) 1,925 ? -7.4°
Sets 07:07:08 0° 174° (S) 2,821 ? -6.9°
